Location: Innsbruck
(47.2657°N, 11.3914°E)
Time: 19:17:57
(UTC+01:00)

BEESAT 3 - Pass Details

Date: 10 December 2021
Orbit: 472 x 512 km, 64.9° (Epoch: 22 January)

Event Time Altitude Azimuth Distance (km) Brightness Sun altitude
Rises 18:51:00 0° 239° (WSW) 2,556 ? -23.9°
Reaches altitude 10° 18:53:15 10° 248° (WSW) 1,686 ? -24.3°
Maximum altitude 18:56:44 35° 316° (NW) 824 ? -24.8°
Enters shadow 18:56:53 35° 321° (NW) 827 ? -24.9°
